This is the latest recevied weather packets stored in our database for station/object W1LBM. If no packets are shown the sender has not sent any weather packets the latest 10 day(s).
| Time | Temp. | Humidity | Pressure | Rain* | Wind** | Luminosity | Snow |
|---|---|---|---|---|---|---|---|
| 1777582865 | 12.22° C | 88% | 1008.5 hPa | 0 mm | - | 34 W/m² | - |
| 1777582562 | 11.67° C | 88% | 1008.7 hPa | 0 mm | - | 34 W/m² | - |
| 1777582257 | 12.22° C | 88% | 1008.4 hPa | 0 mm | - | 39 W/m² | - |
| 1777581954 | 11.67° C | 88% | 1008.7 hPa | 0 mm | - | 54 W/m² | - |
| 1777581650 | 11.67° C | 87% | 1008.7 hPa | 0 mm | - | 41 W/m² | - |
| 1777581344 | 12.22° C | 88% | 1008.8 hPa | 0 mm | - | 44 W/m² | - |
| 1777581039 | 12.22° C | 88% | 1008.7 hPa | 0 mm | - | 44 W/m² | - |
| 1777580739 | 12.22° C | 88% | 1008.5 hPa | 0 mm | - | 55 W/m² | - |
| 1777580436 | 11.67° C | 88% | 1008.5 hPa | 0 mm | - | 58 W/m² | - |
| 1777580131 | 11.67° C | 88% | 1008.5 hPa | 0 mm | - | 52 W/m² | - |
| 1777579828 | 12.22° C | 88% | 1008.5 hPa | 0 mm | - | 47 W/m² | - |
| 1777579527 | 11.67° C | 88% | 1008.7 hPa | 0 mm | - | 48 W/m² | - |
| 1777579227 | 12.22° C | 87% | 1008.7 hPa | 0 mm | - | 50 W/m² | - |
| 1777578922 | 12.22° C | 87% | 1008.5 hPa | 0 mm | - | 53 W/m² | - |
| 1777578618 | 12.22° C | 87% | 1008.6 hPa | 0 mm | - | 68 W/m² | - |
| 1777578317 | 12.78° C | 87% | 1008.8 hPa | 0 mm | - | 87 W/m² | - |
| 1777578014 | 12.22° C | 85% | 1008.7 hPa | 0 mm | - | 142 W/m² | - |
| 1777577709 | 12.22° C | 88% | 1008.6 hPa | 0 mm | - | 201 W/m² | - |
| 1777577406 | 12.22° C | 88% | 1008.8 hPa | 0 mm | - | 146 W/m² | - |
| 1777577102 | 11.67° C | 89% | 1008.9 hPa | 0 mm | - | 119 W/m² | - |
| 1777576799 | 11.67° C | 89% | 1008.9 hPa | 0 mm | - | 118 W/m² | - |
| 1777576498 | 12.22° C | 92% | 1009 hPa | 0 mm | - | 149 W/m² | - |
| 1777576195 | 11.67° C | 92% | 1008.9 hPa | 0 mm | - | 148 W/m² | - |
| 1777575890 | 11.67° C | 93% | 1009 hPa | 0 mm | - | 126 W/m² | - |
| 1777575587 | 11.11° C | 93% | 1009 hPa | 0 mm | - | 103 W/m² | - |
* Rain latest hour (hover to see other rain measurements)
** Current wind speed in m/s (hover to see current wind gust speed)